Regional Weather Roundup
Issued by NWS

Home | Current Version | Previous Version | Graphics & Text | Print | Product List | Glossary On
Versions: 1 2 3 4 5 6 7 8 9 10 11 12 13 14 15 16 17 18 19 20 21 22 23 24 25 26 27 28
000
ASUS45 KBOI 030010
RWRID

IDAHO REGIONAL WEATHER ROUNDUP
NATIONAL WEATHER SERVICE BOISE ID
600 PM MDT MON MAY 02 2016

NOTE: "FAIR" INDICATES FEW OR NO CLOUDS BELOW 12000 FEET
WITH NO SIGNIFICANT WEATHER AND/OR OBSTRUCTIONS TO VISIBILITY

IDZ012-014-030100-
SOUTHWEST IDAHO


CITY           SKY/WX    TMP DP  RH WIND       PRES   REMARKS
BOISE          SUNNY     74  24  15 SE7G16    30.07F
CALDWELL       SUNNY     75  30  19 VRB5      30.06
MOUNTAIN HOME  SUNNY     74  25  16 E13       30.08F
$$

IDZ016-017-030100-
SOUTHCENTRAL IDAHO


CITY           SKY/WX    TMP DP  RH WIND       PRES   REMARKS
BURLEY         SUNNY     66  34  30 E6        30.13F
JEROME         SUNNY     68  30  24 S5        30.14S
TWIN FALLS     SUNNY     66  34  30 VRB5      30.14S
$$

IDZ019>023-030100-
SOUTHEAST IDAHO


CITY           SKY/WX    TMP DP  RH WIND       PRES   REMARKS
IDAHO FALLS    SUNNY     66  18  15 SW3       30.17S
POCATELLO      MOSUNNY   67  28  23 W7        30.17S
REXBURG        SUNNY     65  18  16 CALM      30.16F
$$

IDZ006-010-011-018-031-032-030100-
CENTRAL IDAHO MOUNTAINS


CITY           SKY/WX    TMP DP  RH WIND       PRES   REMARKS
MCCALL         SUNNY     67  33  28 W10       30.12F
HAILEY         MOSUNNY   63  30  29 SE9       30.19S
STANLEY          N/A     65  18  16 W9        30.19S
SALMON         SUNNY     72  27  18 N5        30.06F
CHALLIS        SUNNY     71  19  14 N5        30.12F
$$

IDZ002-004-006-007-026-030100-
NORTHERN IDAHO


CITY           SKY/WX    TMP DP  RH WIND       PRES   REMARKS
LEWISTON       SUNNY     82  37  20 NE6       30.00F
LOWELL           N/A     79  39  23 SE5       29.98F
COEUR D`ALENE  SUNNY     79  36  21 SW10      30.02F
MULLAN PASS    SUNNY     62  25  24 CALM      30.20S
$$




USA.gov is the U.S. government's official web portal to all federal, state and local government web resources and services.